Home > Weather > Downey > Past weeks

Flag for U.S.A. Weather for the Past 2 Weeks in Downey, California, U.S.A.

Now
63 °F

Sunny.


Feels Like: 63 °F
Forecast: 50 / 84 °F
Wind: 7 mph from Northwest

Location: Long Beach Airport

Current Time: Feb 7, 2016 at 10:06:50 AM

Latest Report: Feb 7, 2016 at 8:53 AM


Visibility: 10 mi

Pressure: 30.14 "Hg

Humidity: 30%

Dew point: 31 °F

Location of DowneyLocation

Historic Weather in Downey — Graph

°F

Downey Temperature Yesterday

Maximum temperature yesterday: 79 °F (at 1:53 PM)
Minimum temperature yesterday: 50 °F (at 5:53 AM)
Average temperature yesterday: 63 °F

High & Low Weather Summary for the Past Weeks

 TemperatureHumidityPressure
High79 °F (Feb 6, 1:53 PM)100% (Jan 24, 6:53 AM)30.36 "Hg (Jan 24, 6:53 AM)
Low40 °F (Feb 2, 5:53 AM)12% (Feb 6, 2:53 PM)29.63 "Hg (Jan 31, 1:53 PM)
Average57 °F56%30.12 "Hg
* Reported Jan 23 8:53 AM — Feb 7 8:53 AM, Downey, Weather by CustomWeather, © 2016

Note: Actual official high and low records may vary slightly from our data, if they occured in-between our weather recording intervals... More about our weather records

Advertising

Downey Weather History for the Previous 24 Hours

 ConditionsComfort  
Time TempWeatherWind HumidityBarometerVisibility
8:53 AM
Sun, Feb 7
63 °FSunny.7 mph30%30.14 "Hg10 mi
7:53 AM55 °FSunny.7 mph39%30.13 "Hg10 mi
6:53 AM52 °FSunny.7 mph41%30.13 "Hg10 mi
5:53 AM52 °FClear.6 mph41%30.11 "Hg10 mi
4:53 AM50 °FClear.6 mph50%30.12 "Hg10 mi
3:53 AM54 °FClear.3 mph41%30.12 "Hg10 mi
2:53 AM55 °FClear.6 mph40%30.14 "Hg10 mi
1:53 AM57 °FClear.3 mph39%30.14 "Hg10 mi
12:53 AM57 °FClear.5 mph41%30.15 "Hg10 mi
11:53 PM
Sat, Feb 6
56 °FClear.6 mph42%30.15 "Hg10 mi
10:53 PM59 °FClear.3 mph33%30.15 "Hg10 mi
9:53 PM62 °FClear.3 mph27%30.15 "Hg10 mi
8:53 PM60 °FClear.6 mph35%30.15 "Hg10 mi
7:53 PM64 °FClear.No wind26%30.15 "Hg10 mi
6:53 PM65 °FClear.6 mph27%30.14 "Hg10 mi
5:53 PM68 °FClear.5 mph27%30.13 "Hg10 mi
4:53 PM74 °FSunny.10 mph21%30.12 "Hg10 mi
3:53 PM78 °FSunny.8 mph14%30.12 "Hg10 mi
2:53 PM78 °FSunny.7 mph12%30.13 "Hg10 mi
1:53 PM79 °FSunny.8 mph14%30.15 "Hg10 mi
12:53 PM76 °FSunny.3 mph14%30.19 "Hg10 mi
11:53 AM75 °FSunny.7 mph15%30.24 "Hg10 mi
10:53 AM72 °FSunny.3 mph19%30.27 "Hg10 mi
Weather by CustomWeather, © 2016

See weather overviewHow to use our weather pages